Powrót do katalogu

NIMBUS 2 DEB

AktywnyLEO
NORAD 28613·DEBRIS·🇺🇸 United States

Wystrzelony May 15, 1966 z Vandenberg Space Force Base

Loading…

Następne Przeloty (najbliższe 24 godziny)

TLE

Starzejące sięSource: Space-Track

Epoka: Sep 8, 2026, 05:14 UTC

1 28613U 66040AC  26251.21864727  .00001787  00000-0  19698-2 0  9997
2 28613 100.3811  59.9943 0040958 349.4967 188.0459 13.73298022654763

Śledź NIMBUS 2 DEB w czasie rzeczywistym z AllMySat

Download on the App Store